When you browse on this site, cookies collect data to enhance your experience and personalize the content and advertising you see.
Visit our Privacy Policy to learn more. By continuing to use the site, you agree to this use of cookies and data.

Tiempo cada hora Kuznetsovsk

Hoy, 4 Julio, Sábado

Tiempo Temperatura Precipitaciones Viento Presión Humedad
00:00 +19°C° 0 mm 1 mps 744 mmHg 96%
01:00 +18°C° 0 mm 2 mps 744 mmHg 96%
02:00 +18°C° 0 mm 2 mps 745 mmHg 96%
03:00 +18°C° 0 mm 2 mps 745 mmHg 96%
04:00 +18°C° 0 mm 2 mps 745 mmHg 96%
05:00 +18°C° 0 mm 2 mps 745 mmHg 96%
06:00 +18°C° 0 mm 3 mps 746 mmHg 93%
07:00 +19°C° 0 mm 3 mps 746 mmHg 90%
08:00 +20°C° 0 mm 3 mps 746 mmHg 87%
09:00 +22°C° 0 mm 3 mps 747 mmHg 79%
10:00 +24°C° 0 mm 3 mps 747 mmHg 71%
11:00 +25°C° 0 mm 2 mps 747 mmHg 63%
12:00 +26°C° 0 mm 3 mps 747 mmHg 61%
13:00 +26°C° 0 mm 3 mps 747 mmHg 60%
14:00 +27°C° 0 mm 3 mps 747 mmHg 58%
15:00 +27°C° 0 mm 3 mps 746 mmHg 59%
16:00 +26°C° 0 mm 3 mps 746 mmHg 60%
17:00 +26°C° 0 mm 3 mps 746 mmHg 61%
18:00 +25°C° 0 mm 2 mps 746 mmHg 67%
19:00 +23°C° 0 mm 2 mps 746 mmHg 73%
20:00 +22°C° 0 mm 1 mps 746 mmHg 79%
21:00 +21°C° 0 mm 1 mps 746 mmHg 80%
22:00 +20°C° 0 mm 1 mps 746 mmHg 82%
23:00 +19°C° 0 mm 1 mps 746 mmHg 83%

Mañana, 5 Julio, Domingo

Tiempo Temperatura Precipitaciones Viento Presión Humedad
00:00 +18°C° 0 mm 1 mps 746 mmHg 85%
01:00 +18°C° 0 mm 1 mps 746 mmHg 87%
02:00 +16°C° 0 mm 1 mps 746 mmHg 89%
03:00 +16°C° 0 mm 1 mps 746 mmHg 89%
04:00 +16°C° 0 mm 1 mps 746 mmHg 89%
05:00 +16°C° 0 mm 1 mps 746 mmHg 88%
06:00 +19°C° 0 mm 1 mps 746 mmHg 82%
07:00 +21°C° 0 mm 1 mps 746 mmHg 76%
08:00 +21°C° 0 mm 2 mps 747 mmHg 70%
09:00 +23°C° 0 mm 2 mps 747 mmHg 65%
10:00 +25°C° 0 mm 2 mps 747 mmHg 61%
11:00 +26°C° 0 mm 2 mps 747 mmHg 56%
12:00 +26°C° 0 mm 2 mps 746 mmHg 55%
13:00 +27°C° 0 mm 2 mps 746 mmHg 55%
14:00 +27°C° 0 mm 2 mps 746 mmHg 55%
15:00 +27°C° 0 mm 2 mps 746 mmHg 55%
16:00 +27°C° 0 mm 2 mps 745 mmHg 56%
17:00 +27°C° 0 mm 2 mps 745 mmHg 57%
18:00 +25°C° 0 mm 2 mps 745 mmHg 64%
19:00 +24°C° 0 mm 2 mps 745 mmHg 71%
20:00 +23°C° 0 mm 2 mps 745 mmHg 78%
21:00 +21°C° 0 mm 2 mps 745 mmHg 81%
22:00 +20°C° 0 mm 2 mps 745 mmHg 83%
23:00 +19°C° 0 mm 2 mps 745 mmHg 86%

Pasado mañana, 6 Julio, Lunes

Tiempo Temperatura Precipitaciones Viento Presión Humedad
00:00 +19°C° 0 mm 2 mps 745 mmHg 86%
01:00 +18°C° 0 mm 2 mps 745 mmHg 85%
02:00 +18°C° 0 mm 2 mps 745 mmHg 85%
03:00 +18°C° 0 mm 2 mps 744 mmHg 86%
04:00 +18°C° 0 mm 2 mps 744 mmHg 87%
05:00 +17°C° 0 mm 2 mps 744 mmHg 88%
06:00 +19°C° 0 mm 2 mps 744 mmHg 84%
07:00 +21°C° 0 mm 3 mps 744 mmHg 79%
08:00 +24°C° 0 mm 3 mps 744 mmHg 75%
09:00 +25°C° 0 mm 3 mps 744 mmHg 70%
10:00 +26°C° 0 mm 3 mps 744 mmHg 66%
11:00 +28°C° 0 mm 4 mps 744 mmHg 61%
12:00 +28°C° 0 mm 4 mps 743 mmHg 60%
13:00 +28°C° 0 mm 4 mps 743 mmHg 60%
14:00 +29°C° 0 mm 4 mps 742 mmHg 59%
15:00 +28°C° 0.2 mm 4 mps 742 mmHg 63%
16:00 +28°C° 0.2 mm 3 mps 741 mmHg 67%
17:00 +27°C° 0.2 mm 3 mps 741 mmHg 71%
18:00 +26°C° 0.7 mm 3 mps 741 mmHg 76%
19:00 +25°C° 0.7 mm 2 mps 741 mmHg 81%
20:00 +23°C° 0.7 mm 2 mps 741 mmHg 86%
21:00 +23°C° 0.2 mm 2 mps 741 mmHg 88%
22:00 +21°C° 0.2 mm 2 mps 741 mmHg 89%
23:00 +21°C° 0.2 mm 2 mps 741 mmHg 91%

7 Julio, Martes

Tiempo Temperatura Precipitaciones Viento Presión Humedad
00:00 +20°C° 0 mm 3 mps 741 mmHg 91%
01:00 +19°C° 0 mm 3 mps 742 mmHg 91%
02:00 +19°C° 0 mm 4 mps 742 mmHg 91%
03:00 +18°C° 0.2 mm 3 mps 742 mmHg 90%
04:00 +17°C° 0.2 mm 3 mps 743 mmHg 89%
05:00 +17°C° 0.2 mm 3 mps 743 mmHg 88%
06:00 +17°C° 0 mm 3 mps 743 mmHg 84%
07:00 +17°C° 0 mm 3 mps 744 mmHg 79%
08:00 +18°C° 0 mm 3 mps 745 mmHg 74%
09:00 +19°C° 0 mm 4 mps 745 mmHg 68%
10:00 +20°C° 0 mm 4 mps 745 mmHg 62%
11:00 +21°C° 0 mm 4 mps 745 mmHg 56%
12:00 +21°C° 0 mm 4 mps 745 mmHg 56%
13:00 +21°C° 0 mm 4 mps 745 mmHg 56%
14:00 +21°C° 0 mm 4 mps 745 mmHg 56%
15:00 +21°C° 0 mm 4 mps 745 mmHg 57%
16:00 +21°C° 0 mm 4 mps 745 mmHg 59%
17:00 +21°C° 0 mm 3 mps 745 mmHg 60%
18:00 +19°C° 0 mm 3 mps 745 mmHg 67%
19:00 +18°C° 0 mm 3 mps 745 mmHg 73%
20:00 +17°C° 0 mm 3 mps 745 mmHg 79%
21:00 +16°C° 0 mm 3 mps 746 mmHg 82%
22:00 +14°C° 0 mm 3 mps 746 mmHg 85%
23:00 +12°C° 0 mm 3 mps 746 mmHg 88%

8 Julio, Miércoles

Tiempo Temperatura Precipitaciones Viento Presión Humedad
00:00 +13°C° 0 mm 2 mps 747 mmHg 89%
01:00 +12°C° 0 mm 2 mps 747 mmHg 90%
02:00 +12°C° 0 mm 2 mps 747 mmHg 91%
03:00 +10°C° 0 mm 2 mps 747 mmHg 92%
04:00 +10°C° 0 mm 2 mps 747 mmHg 92%
05:00 +10°C° 0 mm 2 mps 747 mmHg 92%
06:00 +12°C° 0 mm 2 mps 748 mmHg 85%
07:00 +14°C° 0 mm 2 mps 748 mmHg 77%
08:00 +16°C° 0 mm 2 mps 748 mmHg 70%
09:00 +17°C° 0 mm 2 mps 748 mmHg 65%
10:00 +18°C° 0 mm 3 mps 748 mmHg 60%
11:00 +19°C° 0 mm 3 mps 748 mmHg 54%
12:00 +20°C° 0.1 mm 3 mps 748 mmHg 55%
13:00 +20°C° 0.1 mm 3 mps 748 mmHg 55%
14:00 +20°C° 0.1 mm 4 mps 748 mmHg 55%
15:00 +20°C° 0.2 mm 4 mps 748 mmHg 56%
16:00 +20°C° 0.2 mm 4 mps 748 mmHg 57%
17:00 +20°C° 0.2 mm 5 mps 748 mmHg 58%
18:00 +19°C° 0 mm 4 mps 748 mmHg 65%
19:00 +17°C° 0 mm 3 mps 748 mmHg 72%
20:00 +16°C° 0 mm 2 mps 748 mmHg 79%
21:00 +15°C° 0 mm 2 mps 749 mmHg 83%
22:00 +14°C° 0 mm 2 mps 749 mmHg 86%
23:00 +13°C° 0 mm 2 mps 749 mmHg 90%

9 Julio, Jueves

Tiempo Temperatura Precipitaciones Viento Presión Humedad
00:00 +13°C° 0 mm 2 mps 749 mmHg 91%
01:00 +12°C° 0 mm 2 mps 749 mmHg 92%
02:00 +12°C° 0 mm 2 mps 749 mmHg 92%
03:00 +10°C° 0 mm 2 mps 749 mmHg 92%
04:00 +10°C° 0 mm 2 mps 750 mmHg 91%
05:00 +10°C° 0 mm 2 mps 750 mmHg 91%
06:00 +13°C° 0 mm 2 mps 750 mmHg 84%
07:00 +15°C° 0 mm 2 mps 750 mmHg 77%
08:00 +17°C° 0 mm 2 mps 750 mmHg 70%
09:00 +18°C° 0 mm 2 mps 750 mmHg 64%
10:00 +19°C° 0 mm 3 mps 750 mmHg 58%
11:00 +20°C° 0 mm 3 mps 749 mmHg 53%
12:00 +21°C° 0 mm 3 mps 749 mmHg 52%
13:00 +21°C° 0 mm 3 mps 749 mmHg 52%
14:00 +22°C° 0 mm 3 mps 749 mmHg 51%
15:00 +22°C° 0 mm 3 mps 748 mmHg 53%
16:00 +22°C° 0 mm 3 mps 748 mmHg 55%
17:00 +22°C° 0 mm 3 mps 748 mmHg 57%
18:00 +20°C° 0 mm 3 mps 748 mmHg 64%
19:00 +19°C° 0 mm 2 mps 747 mmHg 71%
20:00 +18°C° 0 mm 2 mps 747 mmHg 78%
21:00 +17°C° 0 mm 2 mps 747 mmHg 79%
22:00 +17°C° 0 mm 3 mps 747 mmHg 81%
23:00 +16°C° 0 mm 3 mps 747 mmHg 82%
Mostrar más